Weather History for Siren, WI

Change the Weather History Date:

Tuesday, June 10, 2014

  Actual Average Record
Temperature  
Mean Temperature 61 °F -  
Max Temperature 77 °F - - ()
Min Temperature 45 °F - - ()
Degree Days  
Heating Degree Days 4    
Growing Degree Days 11 (Base 50)    
Moisture  
Dew Point 48 °F    
Average Humidity 65    
Maximum Humidity 97    
Minimum Humidity 32    
Precipitation  
Precipitation 0.00 in - - ()
Sea Level Pressure  
Sea Level Pressure 29.96 in    
Wind  
Wind Speed 2 mph (SSE)    
Max Wind Speed 9 mph    
Max Gust Speed 16 mph    
Visibility 10 miles    
Events      
T = Trace of Precipitation, MM = Missing Value Source: NWS Daily Summary

Daily Weather History Graph

Daily Weather History Graph

Search for Another Location

Airport:

Trip Planner

Search our weather history database for the weather conditions in past years. The results will help you decide how hot, cold, wet, or windy it might be!

Date:

Astronomy

Jun. 10, 2014 Rise Set
Actual Time 5:19 AM CDT 8:58 PM CDT
Civil Twilight 4:41 AM CDT 9:36 PM CDT
Nautical Twilight 3:50 AM CDT 10:27 PM CDT
Astronomical Twilight 2:41 AM CDT 11:36 PM CDT
Moon 6:17 PM CDT (6/10) 3:34 AM CDT (6/10)
Length of Visible Light 16h 55m
Length of Day
15h 39m
Waxing Gibbous, 92% of the Moon is Illuminated
Jun 10
Waxing Gibbous
Jun 12
Full
Jun 19
Last Quarter
Jun 27
New
Jul 5
First Quarter

Hourly Weather History & Observations

Time (CDT) Temp. Dew Point Humidity Pressure Visibility Wind Dir Wind Speed Gust Speed Precip Events Conditions
12:10 AM 51.4 °F 48.6 °F 90% 30.00 in 10.0 mi Calm Calm - N/A   Clear
12:30 AM 49.8 °F 47.1 °F 90% 30.00 in 10.0 mi Calm Calm - N/A   Clear
12:50 AM 50.2 °F 47.8 °F 92% 30.00 in 10.0 mi Calm Calm - N/A   Clear
1:10 AM 49.1 °F 46.6 °F 91% 30.00 in 10.0 mi Calm Calm - N/A   Clear
1:30 AM 48.7 °F 46.8 °F 93% 29.99 in 10.0 mi Calm Calm - N/A   Clear
1:50 AM 48.7 °F 46.9 °F 93% 29.99 in 10.0 mi Calm Calm - N/A   Clear
2:10 AM 48.0 °F 45.5 °F 91% 29.98 in 10.0 mi Calm Calm - N/A   Clear
2:30 AM 47.7 °F 45.5 °F 92% 29.99 in 10.0 mi Calm Calm - N/A   Clear
2:50 AM 47.5 °F 45.1 °F 92% 29.98 in 10.0 mi Calm Calm - N/A   Clear
3:10 AM 47.3 °F 45.0 °F 92% 29.98 in 10.0 mi Calm Calm - N/A   Clear
3:30 AM 47.5 °F 45.9 °F 94% 29.98 in 10.0 mi Calm Calm - N/A   Clear
3:50 AM 47.5 °F 45.3 °F 92% 29.98 in 10.0 mi Calm Calm - N/A   Clear
4:10 AM 47.5 °F 46.0 °F 95% 29.98 in 10.0 mi Calm Calm - N/A   Clear
4:30 AM 46.6 °F 44.8 °F 93% 29.98 in 10.0 mi Calm Calm - N/A   Clear
4:50 AM 46.8 °F 44.8 °F 93% 29.98 in 10.0 mi Calm Calm - N/A   Clear
5:10 AM 45.9 °F 44.1 °F 93% 29.98 in 10.0 mi Calm Calm - N/A   Clear
5:30 AM 45.1 °F 43.2 °F 93% 30.00 in 10.0 mi Calm Calm - N/A   Clear
5:50 AM 45.7 °F 44.2 °F 95% 30.00 in 10.0 mi Calm Calm - N/A   Clear
6:10 AM 47.5 °F 46.0 °F 95% 30.00 in 10.0 mi Calm Calm - N/A   Clear
6:30 AM 48.9 °F 47.5 °F 95% 30.00 in 10.0 mi Calm Calm - N/A   Clear
6:50 AM 50.9 °F 50.0 °F 97% 30.00 in 10.0 mi Calm Calm - N/A   Clear
7:10 AM 52.9 °F 51.3 °F 94% 30.00 in 10.0 mi Calm Calm - N/A   Clear
7:30 AM 56.1 °F 52.2 °F 87% 30.00 in 10.0 mi Calm Calm - N/A   Clear
7:50 AM 58.3 °F 52.9 °F 82% 30.00 in 10.0 mi Calm Calm - N/A   Clear
8:10 AM 60.4 °F 52.5 °F 75% 30.00 in 10.0 mi Calm Calm - N/A   Clear
8:30 AM 63.1 °F 52.3 °F 68% - 10.0 mi Calm Calm - N/A   Clear
8:50 AM 64.6 °F 52.7 °F 65% 30.00 in 10.0 mi SSE 5.8 mph - N/A   Clear
9:10 AM 65.5 °F 53.4 °F 65% 30.00 in 10.0 mi SE 4.6 mph - N/A   Clear
9:30 AM 66.9 °F 54.5 °F 64% 30.00 in 10.0 mi Calm Calm - N/A   Clear
9:50 AM 68.2 °F 53.8 °F 60% 30.00 in 10.0 mi ESE 3.5 mph - N/A   Clear
10:10 AM 70.7 °F 51.1 °F 50% 29.99 in 10.0 mi SSE 6.9 mph - N/A   Clear
10:30 AM 71.6 °F 48.4 °F 44% 29.98 in 10.0 mi SSE 9.2 mph - N/A   Clear
11:10 AM 72.7 °F 47.1 °F 40% 29.98 in 10.0 mi ESE 8.1 mph - N/A   Clear
11:30 AM 74.1 °F 44.8 °F 35% 29.98 in 10.0 mi SE 8.1 mph - N/A   Clear
11:50 AM 74.7 °F 46.9 °F 37% 29.98 in 10.0 mi South 9.2 mph - N/A   Scattered Clouds
12:10 PM 74.3 °F 46.9 °F 38% 29.97 in 10.0 mi South 3.5 mph - N/A   Scattered Clouds
12:30 PM 75.0 °F 47.8 °F 38% 29.97 in 10.0 mi SSE 6.9 mph - N/A   Scattered Clouds
12:50 PM 73.2 °F 47.3 °F 40% 29.97 in 10.0 mi SE 6.9 mph - N/A   Mostly Cloudy
1:10 PM 74.5 °F 45.5 °F 36% 29.96 in 10.0 mi SSE 4.6 mph - N/A   Scattered Clouds
1:50 PM 73.4 °F 46.0 °F 38% 29.96 in 10.0 mi SE 5.8 mph - N/A   Clear
2:10 PM 75.6 °F 46.2 °F 35% 29.95 in 10.0 mi South 9.2 mph - N/A   Clear
2:30 PM 76.1 °F 46.8 °F 35% 29.95 in 10.0 mi South 6.9 mph - N/A   Clear
2:50 PM 74.5 °F 45.9 °F 36% 29.95 in 10.0 mi SSE 5.8 mph - N/A   Clear
3:10 PM 76.5 °F 46.6 °F 35% 29.95 in 10.0 mi SE 8.1 mph - N/A   Clear
3:30 PM 76.1 °F 45.9 °F 34% 29.94 in 10.0 mi SSE 8.1 mph 16.1 mph N/A   Scattered Clouds
4:10 PM 73.6 °F 46.2 °F 38% 29.94 in 10.0 mi South 5.8 mph - N/A   Scattered Clouds
4:30 PM 76.1 °F 44.6 °F 33% 29.93 in 10.0 mi SSW 3.5 mph - N/A   Clear
4:50 PM 77.0 °F 45.0 °F 32% 29.93 in 10.0 mi South 6.9 mph - N/A   Clear
5:10 PM 74.7 °F 45.1 °F 35% 29.93 in 10.0 mi SSW 5.8 mph - N/A   Mostly Cloudy
5:30 PM 75.2 °F 45.0 °F 34% 29.92 in 10.0 mi SE 3.5 mph - N/A   Mostly Cloudy
5:50 PM 76.6 °F 45.5 °F 33% 29.91 in 10.0 mi ESE 5.8 mph - N/A   Scattered Clouds
6:10 PM 76.1 °F 44.6 °F 33% 29.91 in 10.0 mi SE 6.9 mph - N/A   Clear
6:30 PM 75.7 °F 44.4 °F 33% 29.91 in 10.0 mi SSE 4.6 mph - N/A   Clear
6:50 PM 75.2 °F 46.2 °F 36% 29.92 in 10.0 mi South 6.9 mph - N/A   Clear
7:10 PM 74.3 °F 45.7 °F 36% 29.91 in 10.0 mi SSE 5.8 mph - N/A   Clear
7:30 PM 73.8 °F 47.1 °F 39% 29.91 in 10.0 mi SSE 3.5 mph - N/A   Clear
7:50 PM 73.4 °F 47.5 °F 40% 29.91 in 10.0 mi SSE 3.5 mph - N/A   Clear
8:10 PM 72.0 °F 48.7 °F 44% 29.91 in 10.0 mi Calm Calm - N/A   Clear
8:30 PM 70.2 °F 50.4 °F 49% 29.91 in 10.0 mi Calm Calm - N/A   Clear
8:50 PM 64.2 °F 53.8 °F 69% 29.90 in 10.0 mi Calm Calm - N/A   Clear
9:10 PM 62.1 °F 52.9 °F 72% 29.90 in 10.0 mi Calm Calm - N/A   Clear
9:30 PM 60.3 °F 52.5 °F 76% 29.91 in 10.0 mi Calm Calm - N/A   Clear
9:50 PM 59.4 °F 52.0 °F 77% 29.91 in 10.0 mi Calm Calm - N/A   Clear
10:10 PM 57.7 °F 52.0 °F 81% 29.90 in 10.0 mi Calm Calm - N/A   Clear
10:30 PM 57.2 °F 51.8 °F 82% 29.90 in 10.0 mi Calm Calm - N/A   Clear
10:50 PM 56.1 °F 51.1 °F 83% 29.90 in 10.0 mi Calm Calm - N/A   Clear
11:10 PM 56.5 °F 50.7 °F 81% 29.89 in 10.0 mi Calm Calm - N/A   Clear
11:30 PM 55.6 °F 51.1 °F 85% 29.89 in 10.0 mi Calm Calm - N/A   Clear
11:50 PM 54.0 °F 50.0 °F 86% 29.89 in 10.0 mi Calm Calm - N/A   Clear